EW2470 Weather Reports


time (UTC)temp
C
wind
direction
speed
KPH
gust
KPH
rain 1hr
cm
rain 24hr
cm
rain mn
cm
humidity
%
barometer
mb
20260906122537 22 225 1.6 3.2 0.00 0.00 0.00 91 1011.3
20260906121518 22 0.0 3.2 0.00 0.00 0.00 91 1011.3
20260906120517 21 0.0 3.2 0.00 0.00 0.00 91 1011.2
20260906115516 21 0.0 3.2 0.00 0.00 0.00 91 1011.1
20260906114516 21 0.0 3.2 0.00 0.00 0.00 91 1011.2
20260906113516 21 0.0 3.2 0.00 0.00 0.00 91 1011.1
20260906112517 21 0.0 0.0 0.00 0.00 0.00 91 1011.1
20260906111517 21 0.0 3.2 0.00 0.00 0.00 91 1010.9
20260906110558 21 0.0 0.0 0.00 0.00 0.00 90 1010.8
20260906105516 21 0.0 3.2 0.00 0.00 0.00 90 1010.5
20260906104517 21 0.0 3.2 0.00 0.00 0.00 90 1010.4
20260906103537 21 0.0 3.2 0.00 0.00 0.00 90 1010.1
20260906102516 21 0.0 3.2 0.00 0.00 0.00 90 1010.4
20260906101517 21 0.0 3.2 0.00 0.00 0.00 90 1010.6
20260906100516 21 0.0 1.6 0.00 0.00 0.00 90 1010.5
20260906095537 21 0.0 0.0 0.00 0.00 0.00 91 1010.5
20260906094616 21 0.0 0.0 0.00 0.00 0.00 91 1010.4
20260906093537 21 0.0 1.6 0.00 0.00 0.00 91 1010.3
20260906092516 21 0.0 3.2 0.00 0.00 0.00 91 1010.2
20260906091537 21 0.0 3.2 0.00 0.00 0.00 91 1010.3
20260906090553 21 0.0 0.0 0.00 0.00 0.00 91 1010.2
20260906085558 21 0.0 3.2 0.00 0.00 0.00 91 1010.1
20260906084517 21 0.0 0.0 0.00 0.00 0.00 91 1010.2
20260906083516 21 0.0 0.0 0.00 0.00 0.00 90 1010.2
20260906082516 21 0.0 3.2 0.00 0.00 0.00 90 1010.1
20260906081618 21 0.0 0.0 0.00 0.00 0.00 90 1010.1
20260906080516 21 0.0 3.2 0.00 0.00 0.00 90 1010.1
20260906075517 21 0.0 0.0 0.00 0.00 0.00 90 1010.1
20260906074516 21 0.0 3.2 0.00 0.00 0.00 90 1009.9
20260906073519 21 0.0 3.2 0.00 0.00 0.00 90 1010.1
20260906072516 21 0.0 3.2 0.00 0.00 0.00 90 1010.3
20260906071519 21 0.0 3.2 0.00 0.00 0.00 90 1010.4
20260906070518 21 0.0 0.0 0.00 0.00 0.00 90 1010.5
20260906065517 21 0.0 0.0 0.00 0.00 0.00 90 1010.6
20260906064516 21 0.0 0.0 0.00 0.00 0.00 90 1010.4
20260906063536 21 0.0 0.0 0.00 0.00 0.00 89 1010.4
20260906062557 21 0.0 0.0 0.00 0.00 0.00 89 1010.5
20260906061516 21 0.0 0.0 0.00 0.00 0.00 89 1010.5
20260906060518 21 0.0 0.0 0.00 0.00 0.00 88 1010.7
20260906055516 22 0.0 3.2 0.00 0.00 0.00 88 1010.9
20260906054516 22 0.0 3.2 0.00 0.00 0.00 87 1010.9
20260906053516 22 0.0 0.0 0.00 0.00 0.00 87 1010.9
20260906052517 22 0.0 3.2 0.00 0.00 0.00 87 1011.1
20260906051518 22 0.0 3.2 0.00 0.00 0.00 87 1011.3
20260906050525 22 0.0 3.2 0.00 0.00 0.00 87 1011.5
20260906045516 22 180 1.6 1.6 0.00 0.00 0.00 87 1011.5
20260906044517 22 0.0 3.2 0.00 0.00 0.00 87 1011.4
20260906043516 22 0.0 3.2 0.00 0.00 0.00 87 1011.2
20260906042518 22 0.0 3.2 0.00 0.00 0.00 86 1011.1
20260906041516 22 338 1.6 1.6 0.00 0.00 0.00 86 1011.0
20260906040538 22 0.0 3.2 0.00 0.00 0.00 85 1010.5
20260906035516 22 0.0 3.2 0.00 0.00 0.00 85 1010.3
20260906034516 23 0.0 3.2 0.00 0.00 0.00 84 1010.4
20260906033516 23 0.0 1.6 0.00 0.00 0.00 83 1010.6
20260906032516 23 0.0 1.6 0.00 0.00 0.00 83 1010.8
20260906031516 23 0.0 3.2 0.00 0.00 0.00 82 1010.6
20260906030518 24 0.0 3.2 0.00 0.00 0.00 79 1010.6
20260906025516 25 0.0 3.2 0.00 0.00 0.00 78 1010.6
20260906024517 25 0.0 1.6 0.00 0.00 0.00 74 1010.7
20260906023516 25 0.0 3.2 0.00 0.00 0.00 74 1010.9
20260906022536 25 68 3.2 6.4 0.00 0.00 0.00 70 1011.0
20260906021516 26 68 1.6 3.2 0.00 0.00 0.00 68 1010.7
20260906020516 26 248 1.6 3.2 0.00 0.00 0.00 67 1010.6
20260906015517 26 270 1.6 3.2 0.00 0.00 0.00 66 1010.8
20260906014515 27 0.0 0.0 0.00 0.00 0.00 64 1011.2
20260906013516 27 23 1.6 3.2 0.00 0.00 0.00 63 1011.5
20260906012516 27 0 1.6 4.8 0.00 0.00 0.00 61 1011.4
20260906011517 28 0 3.2 6.4 0.00 0.00 0.00 60 1011.3
20260906010537 28 293 1.6 3.2 0.00 0.00 0.00 62 1011.1
20260906005516 28 270 3.2 12.9 0.00 0.00 0.00 63 1010.7
20260906004517 28 315 3.2 11.3 0.00 0.00 0.00 67 1010.7
20260906003516 28 0 1.6 4.8 0.00 0.00 0.00 71 1010.6
20260906002516 29 338 1.6 4.8 0.00 0.00 0.00 70 1009.8
20260906001517 29 270 1.6 8.0 0.00 0.00 0.00 69 1009.6
20260906000517 30 0.0 0.0 0.00 0.00 0.00 68 1009.8
20260905235517 30 0.0 1.6 0.00 0.00 0.00 67 1009.5
20260905234517 30 225 1.6 4.8 0.00 0.00 0.00 66 1009.1
20260905233516 30 225 3.2 6.4 0.00 0.00 0.00 65 1008.9
20260905232516 30 225 3.2 8.0 0.00 0.00 0.00 65 1009.2
20260905231516 31 225 4.8 9.7 0.00 0.00 0.00 64 1009.4
20260905230545 31 225 3.2 11.3 0.00 0.00 0.00 65 1009.4
20260905225516 31 225 4.8 14.5 0.00 0.00 0.00 65 1009.4
20260905224517 31 248 3.2 8.0 0.00 0.00 0.00 65 1009.5
20260905223537 31 225 1.6 8.0 0.00 0.00 0.00 65 1009.3
20260905222516 32 225 3.2 8.0 0.00 0.00 0.00 63 1009.3
20260905221517 32 225 4.8 11.3 0.00 0.00 0.00 61 1009.3
20260905220517 33 203 4.8 11.3 0.00 0.00 0.00 61 1009.2
20260905215516 32 225 6.4 12.9 0.00 0.00 0.00 61 1009.3
20260905214517 32 225 9.7 19.3 0.00 0.00 0.00 60 1009.2
20260905213517 33 225 6.4 14.5 0.00 0.00 0.00 61 1009.3
20260905212516 33 225 4.8 11.3 0.00 0.00 0.00 61 1009.2
20260905211516 33 225 6.4 12.9 0.00 0.00 0.00 62 1009.3
20260905210517 33 225 4.8 14.5 0.00 0.00 0.00 61 1009.3
20260905205516 33 225 3.2 9.7 0.00 0.00 0.00 59 1009.4
20260905204517 34 225 6.4 14.5 0.00 0.00 0.00 57 1009.4
20260905203536 35 225 8.0 17.7 0.00 0.00 0.00 55 1009.4
20260905202516 35 225 6.4 17.7 0.00 0.00 0.00 53 1009.3
20260905201519 36 135 3.2 6.4 0.00 0.00 0.00 46 1009.4
20260905200516 37 0.0 3.2 0.00 0.00 0.00 46 1009.7
20260905195516 37 180 3.2 9.7 0.00 0.00 0.00 44 1009.9
20260905194516 37 158 1.6 4.8 0.00 0.00 0.00 43 1010.0
20260905193516 37 180 1.6 4.8 0.00 0.00 0.00 44 1010.3
20260905192517 37 113 3.2 6.4 0.00 0.00 0.00 46 1010.5
20260905191518 36 113 1.6 6.4 0.00 0.00 0.00 49 1010.7
20260905190606 36 135 6.4 12.9 0.00 0.00 0.00 46 1010.8
20260905185516 37 180 4.8 11.3 0.00 0.00 0.00 47 1010.6
20260905184516 36 180 1.6 4.8 0.00 0.00 0.00 50 1010.5
20260905183516 36 90 1.6 4.8 0.00 0.00 0.00 47 1010.7
20260905182517 35 45 4.8 11.3 0.00 0.00 0.00 48 1010.9
20260905181517 35 135 4.8 12.9 0.00 0.00 0.00 52 1011.0
20260905180517 35 113 6.4 12.9 0.00 0.00 0.00 51 1011.1
20260905175517 35 225 3.2 6.4 0.00 0.00 0.00 50 1011.2
20260905174516 35 180 3.2 8.0 0.00 0.00 0.00 54 1011.5
20260905173517 35 180 3.2 8.0 0.00 0.00 0.00 51 1011.5
20260905172516 34 225 1.6 3.2 0.00 0.00 0.00 53 1011.7
20260905171516 33 0.0 3.2 0.00 0.00 0.00 53 1011.8
20260905170519 33 0 1.6 3.2 0.00 0.00 0.00 55 1011.9
20260905165516 34 90 4.8 11.3 0.00 0.00 0.00 51 1012.1
20260905164518 34 45 3.2 9.7 0.00 0.00 0.00 54 1012.4
20260905163516 34 0 1.6 4.8 0.00 0.00 0.00 58 1012.5
20260905162516 33 113 3.2 4.8 0.00 0.00 0.00 59 1012.6
20260905161518 33 45 1.6 6.4 0.00 0.00 0.00 62 1012.6
20260905160516 33 23 1.6 3.2 0.00 0.00 0.00 63 1012.7
20260905155516 33 90 4.8 6.4 0.00 0.00 0.00 63 1012.8
20260905154516 33 113 1.6 6.4 0.00 0.00 0.00 64 1012.9
20260905153516 32 225 1.6 4.8 0.00 0.00 0.00 68 1013.0
20260905152516 32 135 3.2 9.7 0.00 0.00 0.00 67 1013.0
20260905151517 32 180 1.6 3.2 0.00 0.00 0.00 69 1013.0
20260905150525 31 45 3.2 9.7 0.00 0.00 0.00 69 1013.1
20260905145516 31 90 1.6 3.2 0.00 0.00 0.00 72 1013.1
20260905144516 31 45 1.6 4.8 0.00 0.00 0.00 72 1013.1
20260905143516 30 0.0 4.8 0.00 0.00 0.00 75 1013.2
20260905142517 30 270 1.6 4.8 0.00 0.00 0.00 75 1013.4
20260905141516 30 225 1.6 4.8 0.00 0.00 0.00 76 1013.4
20260905140516 29 225 1.6 3.2 0.00 0.00 0.00 81 1013.3
20260905135516 28 0 1.6 3.2 0.00 0.00 0.00 81 1013.4
20260905134516 27 68 1.6 3.2 0.00 0.00 0.00 82 1013.4
20260905133516 27 0 1.6 1.6 0.00 0.00 0.00 85 1013.4
20260905132518 26 315 1.6 3.2 0.00 0.00 0.00 88 1013.4
20260905131516 26 203 1.6 3.2 0.00 0.00 0.00 91 1013.5
20260905130515 25 248 1.6 6.4 0.00 0.00 0.00 92 1013.5
20260905125516 25 0.0 3.2 0.00 0.00 0.00 93 1013.4
20260905124516 24 0.0 3.2 0.00 0.00 0.00 93 1013.5
20260905123515 23 0.0 3.2 0.00 0.00 0.00 93 1013.5